Regional Weather Roundup
Issued by NWS

Home | Current Version | Previous Version | Text Only | Print | Product List | Glossary On
Versions: 1 2 3 4 5 6 7 8 9 10 11 12 13 14 15 16 17 18 19 20 21 22 23 24 25 26 27 28 29 30 31 32 33 34 35 36 37 38 39 40 41 42 43 44 45 46 47 48 49 50
000
ASUS43 KBIS 201320
RWRND

NORTH DAKOTA REGIONAL WEATHER ROUNDUP
NATIONAL WEATHER SERVICE BISMARCK ND
800 AM CDT WED AUG 20 2014

NOTE: "FAIR" INDICATES FEW OR NO CLOUDS BELOW 12,000 FEET WITH NO
SIGNIFICANT WEATHER AND/OR OBSTRUCTIONS TO VISIBILITY.


NDZ001>003-009>011-017-201400-
NORTHWEST NORTH DAKOTA

CITY           SKY/WX    TMP DP  RH WIND       PRES   REMARKS
WILLISTON      MOCLDY    72  61  68 S3        29.63R
MINOT          MOSUNNY   64  61  90 SE8       29.67S
MINOT AFB      MOSUNNY   65  65  99 SE9       29.66S
$$

NDZ018>021-031>035-040>046-201400-
SOUTHWEST NORTH DAKOTA

CITY           SKY/WX    TMP DP  RH WIND       PRES   REMARKS
BISMARCK       MOSUNNY   66  62  87 E8        29.72S
DICKINSON      MOCLDY    68  62  81 S9        29.67R
GARRISON         N/A     66  63  90 SE7       29.69R
HETTINGER ARPT CLOUDY    68  62  81 SE7       29.71R
$$

NDZ004>008-012>016-024-026-027-054-201400-
NORTHEAST NORTH DAKOTA

CITY           SKY/WX    TMP DP  RH WIND       PRES   REMARKS
GRAND FORKS    PTSUNNY   65  62  90 SE6       29.78R
GRND FRKS AFB  MOSUNNY   64  64 100 SE6       29.79R
DEVILS LAKE    MOSUNNY   70  61  73 SE9       29.74S
$$

NDZ022-023-025-028>030-036>039-047>053-201400-
SOUTHEAST NORTH DAKOTA

CITY           SKY/WX    TMP DP  RH WIND       PRES   REMARKS
FARGO          SUNNY     69  63  81 SE8       29.79R
JAMESTOWN      SUNNY     66  62  87 SE8       29.76R
$$




USA.gov is the U.S. government's official web portal to all federal, state and local government web resources and services.